Location: Fort McMurray
(56.7330°N, 111.3830°W)
Time: 02:19:48
(UTC-07:00)

OTV 5 (USA 277) - Visible Passes

Search period start: 23 January 2019 00:00
Search period end: 02 February 2019 00:00
Orbit: 339 x 349 km, 54.5° (Epoch: 15 January)

Date Brightness Start Highest point End Pass type
(mag) Time Alt. Az. Time Alt. Az. Time Alt. Az.
26 Jan ? 07:32:15 10° S 07:34:16 17° SSE 07:36:18 10° ESE visible
28 Jan ? 06:44:44 10° S 06:46:43 17° SSE 06:48:43 10° ESE visible
29 Jan ? 07:07:30 10° SW 07:10:06 28° SSE 07:12:41 10° E visible
30 Jan ? 05:58:08 14° S 05:59:10 16° SE 06:01:07 10° ESE visible
30 Jan ? 07:30:47 10° WSW 07:33:35 43° SSE 07:36:24 10° E visible
31 Jan ? 06:21:13 19° SSW 06:22:32 28° SSE 06:25:07 10° E visible
01 Feb ? 05:12:45 13° ESE 05:12:45 13° ESE 05:13:30 10° ESE visible
01 Feb ? 06:44:11 18° SW 06:46:01 43° SSE 06:48:49 10° E visible
